Weather History for KHEY - February, 2014

Change the Weather History Date:

Wednesday, February 19, 2014

  Actual Average (KOZR) Record (KOZR)
Temperature  
Mean Temperature 66 °F -  
Max Temperature 77 °F 62 °F 78 °F (2014)
Min Temperature 55 °F 41 °F 23 °F (2007)
Cooling Degree Days 1    
Growing Degree Days 16 (Base 50)    
Moisture  
Dew Point 59 °F    
Average Humidity 87    
Maximum Humidity 100    
Minimum Humidity 52    
Precipitation  
Precipitation 0.00 in - - ()
Sea Level Pressure  
Sea Level Pressure 29.91 in    
Wind  
Wind Speed 3 mph (SSW)    
Max Wind Speed 10 mph    
Max Gust Speed -    
Visibility 7 miles    
Events Fog    
Averages and records for this station are not official NWS values.
T = Trace of Precipitation, MM = Missing Value Source: NWS Daily Summary

Daily Weather History Graph

Daily Weather History Graph

Search for Another Location

Airport or City:

Trip Planner

Search our weather history database for the weather conditions in past years. The results will help you decide how hot, cold, wet, or windy it might be!

Date:

Astronomy

Feb. 19, 2014 Rise Set
Actual Time 6:20 AM CST 5:33 PM CST
Civil Twilight 5:55 AM CST 5:57 PM CST
Nautical Twilight 5:27 AM CST 6:26 PM CST
Astronomical Twilight 4:59 AM CST 6:54 PM CST
Moon 10:04 PM CST (2/19) 8:45 AM CST (2/19)
Length of Visible Light 12h 02m
Length of Day
11h 12m
Waning Gibbous, 79% of the Moon is Illuminated
Feb 19
Waning Gibbous
Feb 22
Last Quarter
Mar 1
New
Mar 8
First Quarter
Mar 16
Full

Hourly Weather History & Observations

Time (CST) Temp. Dew Point Humidity Pressure Visibility Wind Dir Wind Speed Gust Speed Precip Events Conditions
12:53 AM 57.0 °F 54.0 °F 89% 29.78 in 10.0 mi Calm Calm - N/A   Clear
1:53 AM 57.0 °F 54.0 °F 89% 29.77 in 10.0 mi SSW 3.5 mph - N/A   Clear
2:53 AM 55.0 °F 54.0 °F 96% 29.75 in 10.0 mi SSW 3.5 mph - N/A   Scattered Clouds
3:01 AM 55.9 °F 54.0 °F 93% 30.08 in 10.0 mi SSW 4.6 mph - N/A   Mostly Cloudy
3:09 AM 55.9 °F 54.0 °F 93% 30.08 in 10.0 mi SW 5.8 mph - N/A   Mostly Cloudy
3:48 AM 57.0 °F 55.9 °F 96% 29.75 in 1.8 mi SW 3.5 mph - N/A   Overcast
4:04 AM 57.0 °F 57.0 °F 100% 30.09 in 0.8 mi SSW 3.5 mph - N/A   Overcast
4:50 AM 59.0 °F 57.2 °F 94% 30.10 in 1.0 mi Variable 3.5 mph - N/A   Mist
4:53 AM 59.0 °F 57.9 °F 96% 29.77 in 1.0 mi Calm Calm - N/A   Overcast
5:39 AM 59.0 °F 57.9 °F 96% 30.11 in 0.8 mi WSW 3.5 mph - N/A   Mist
5:53 AM 59.0 °F 59.0 °F 100% 29.80 in 0.8 mi WNW 3.5 mph - N/A   Mist
6:26 AM 59.0 °F 59.0 °F 100% 30.13 in 0.8 mi Calm Calm - N/A   Mist
6:53 AM 59.0 °F 59.0 °F 100% 29.80 in 0.2 mi Calm Calm - N/A Fog Fog
7:53 AM 60.1 °F 60.1 °F 100% 29.81 in 0.5 mi South 4.6 mph - N/A Fog Fog
8:12 AM 61.0 °F 60.1 °F 97% 30.14 in 1.5 mi Variable 4.6 mph - N/A   Overcast
8:22 AM 61.0 °F 61.0 °F 100% 30.14 in 2.5 mi South 3.5 mph - N/A   Overcast
8:33 AM 61.0 °F 61.0 °F 100% 30.14 in 4.0 mi South 3.5 mph - N/A   Overcast
8:53 AM 62.1 °F 61.0 °F 96% 29.81 in 9.0 mi South 3.5 mph - N/A   Overcast
9:25 AM 63.0 °F 62.1 °F 97% 30.14 in 10.0 mi SSW 5.8 mph - N/A   Overcast
9:32 AM 63.0 °F 62.1 °F 97% 30.14 in 10.0 mi SW 5.8 mph - N/A   Overcast
9:53 AM 64.9 °F 61.0 °F 87% 29.81 in 10.0 mi SW 5.8 mph - N/A   Overcast
10:01 AM 64.9 °F 61.0 °F 87% 30.14 in 10.0 mi SW 5.8 mph - N/A   Overcast
10:11 AM 66.0 °F 61.0 °F 84% 30.14 in 10.0 mi West 5.8 mph - N/A   Overcast
10:29 AM 66.9 °F 61.0 °F 81% 30.13 in 10.0 mi Variable 4.6 mph - N/A   Overcast
10:53 AM 68.0 °F 61.0 °F 78% 29.79 in 10.0 mi WSW 4.6 mph - N/A   Overcast
11:07 AM 70.0 °F 61.0 °F 73% 30.12 in 10.0 mi SW 3.5 mph - N/A   Mostly Cloudy
11:53 AM 72.0 °F 61.0 °F 68% 29.77 in 10.0 mi Calm Calm - N/A   Mostly Cloudy
12:53 PM 75.0 °F 59.0 °F 57% 29.73 in 10.0 mi Calm Calm - N/A   Mostly Cloudy
1:53 PM 77.0 °F 57.9 °F 52% 29.70 in 10.0 mi Variable 5.8 mph - N/A   Partly Cloudy
2:53 PM 75.9 °F 57.9 °F 54% 29.70 in 10.0 mi Variable 6.9 mph - N/A   Mostly Cloudy
3:53 PM 75.0 °F 59.0 °F 57% 29.69 in 10.0 mi SSW 8.1 mph - N/A   Partly Cloudy
4:53 PM 73.9 °F 57.9 °F 57% 29.69 in 10.0 mi South 10.4 mph - N/A   Partly Cloudy
5:53 PM 71.1 °F 59.0 °F 66% 29.70 in 10.0 mi South 4.6 mph - N/A   Clear
6:53 PM 68.0 °F 59.0 °F 73% 29.71 in 10.0 mi South 4.6 mph - N/A   Clear
7:53 PM 66.0 °F 60.1 °F 81% 29.73 in 10.0 mi Variable 4.6 mph - N/A   Clear
8:53 PM 64.0 °F 61.0 °F 90% 29.75 in 10.0 mi SSW 3.5 mph - N/A   Clear
9:53 PM 62.1 °F 60.1 °F 93% 29.74 in 10.0 mi Calm Calm - N/A   Partly Cloudy
10:06 PM 62.1 °F 60.1 °F 93% 30.07 in 9.0 mi SSW 3.5 mph - N/A   Mostly Cloudy
10:35 PM 62.1 °F 61.0 °F 96% 30.06 in 9.0 mi SSW 5.8 mph - N/A   Overcast
10:53 PM 62.1 °F 61.0 °F 96% 29.73 in 6.0 mi SW 8.1 mph - N/A   Overcast
11:30 PM 62.1 °F 61.0 °F 96% 30.07 in 1.8 mi SSW 6.9 mph - N/A   Overcast
11:46 PM 61.0 °F 61.0 °F 100% 30.07 in 0.8 mi South 4.6 mph - N/A   Mist
11:53 PM 61.0 °F 61.0 °F 100% 29.74 in 0.5 mi South 4.6 mph - N/A Fog Fog